Content
SEND FEEDBACK

Daily
Averages
Monthly
Summary
United States of America

INARAJAN, GUAM


Home > North America > United States > Guam
Elevation: 85 meters     Latitude: 13 18N     Longitude: 144 44E

WEATHER
 
SELECT A DAY
Number of Records: 341,524;   Date Range: 1/1/95 - 7/7/14
 
SHARE

PRINT THIS DATA

[ ← Previous Day ]
WEATHER ALMANAC - 7 MAY, 2013
[ Next Day → ]
[ °F ]   °C
Weather ElementAverageHighLow
Temperature26.9 °C29.4 °C (1:55 pm)25 °C (12:52 am)
Dewpoint24.1 °C25 °C (7:59 am)23.7 °C (2:55 am)
Humidity84.9 %95 % (12:55 am)73 % (1:55 pm)
Barometer1009.5 hPa1010.8 hPa (12:52 am)1007.5 hPa (3:55 pm)
Wind Speed13 km/h20.4 km/h (11:57 am)
Weather ElementAverage
Visibility15.9 km
Wind DirectionE (92.8 °)

Weather ElementTotal
Precipitation0.25 mm
Cooling Degree Days8.9 (Base 18.3)
Growing Degree Days17.2 (Base 10)
Averaged from 100 records on 7 May, 2013
WEATHER CONDITIONS BREAKOUT
WIND DIRECTION BREAKOUT
WEATHER BY HOUR - 7 MAY, 2013
[ °F ]   °C
Local TimeTemperatureDewpointHumidityBarometerVisibilityWind DirectionWind SpeedGust SpeedPrecipitationEventsConditions
12:52 AM25 °C24 °C94 %1010.8 hPa16.1 kmEast (80°)11.1 km/hMostly Cloudy
12:54 AM25 °C24 °C94 %1010.8 hPa16.1 kmEast (90°)11.1 km/hMostly Cloudy
12:55 AM25.3 °C24.5 °C95 %1010.8 hPa16.1 kmEast (90°)11.1 km/hMostly Cloudy
1:55 AM25.6 °C24.1 °C91 %1010.2 hPa16.1 kmEast (100°)11.1 km/hPartly Cloudy
2:21 AM26 °C24 °C89 %1009.8 hPa16.1 kmEast (100°)9.3 km/hMostly Cloudy
2:25 AM26 °C24 °C89 %1009.8 hPa16.1 kmEast (100°)7.4 km/hMostly Cloudy
2:34 AM26 °C24 °C89 %1009.8 hPa16.1 kmEast (100°)16.7 km/hMostly Cloudy
2:37 AM26 °C24 °C89 %1009.5 hPa16.1 kmEast (100°)13 km/hScattered Clouds
2:55 AM25.6 °C23.7 °C89 %1009.5 hPa16.1 kmEast (100°)13 km/hPartly Cloudy
3:55 AM25.5 °C23.8 °C90 %1009.1 hPa16.1 kmESE (110°)9.3 km/hPartly Cloudy
4:02 AM26 °C24 °C89 %1009.1 hPa16.1 kmESE (110°)11.1 km/hMostly Cloudy
4:11 AM26 °C24 °C89 %1009.5 hPa16.1 kmESE (110°)9.3 km/hMostly Cloudy
4:12 AM26 °C24 °C89 %1009.5 hPa16.1 kmESE (110°)9.3 km/hMostly Cloudy
4:14 AM26 °C24 °C89 %1009.5 hPa16.1 kmEast (100°)9.3 km/hMostly Cloudy
4:20 AM26 °C24 °C89 %1009.5 hPa16.1 kmEast (100°)11.1 km/hMostly Cloudy
4:24 AM26 °C24 °C89 %1009.5 hPa16.1 kmEast (100°)11.1 km/hMostly Cloudy
4:29 AM26 °C24 °C89 %1009.5 hPa16.1 kmEast (100°)9.3 km/hMostly Cloudy
4:33 AM26 °C24 °C89 %1009.5 hPa16.1 kmEast (90°)11.1 km/hMostly Cloudy
4:37 AM26 °C24 °C89 %1009.5 hPa16.1 kmEast (90°)13 km/hMostly Cloudy
4:41 AM26 °C24 °C89 %1009.5 hPa16.1 kmEast (90°)11.1 km/hScattered Clouds
4:54 AM26 °C24 °C89 %1009.5 hPa16.1 kmEast (90°)11.1 km/hMostly Cloudy
4:55 AM25.7 °C23.9 °C90 %1009.5 hPa16.1 kmEast (90°)9.3 km/hMostly Cloudy
4:56 AM26 °C24 °C89 %1009.5 hPa16.1 kmEast (90°)9.3 km/hMostly Cloudy
4:59 AM26 °C24 °C89 %1009.5 hPa16.1 kmEast (80°)11.1 km/hMostly Cloudy
5:04 AM26 °C24 °C89 %1009.5 hPa16.1 kmEast (90°)13 km/hScattered Clouds
5:13 AM26 °C24 °C89 %1009.5 hPa16.1 kmEast (100°)9.3 km/hMostly Cloudy
5:55 AM25.8 °C24 °C90 %1009.8 hPa16.1 kmESE (120°)11.1 km/hOvercast
6:01 AM26 °C24 °C89 %1009.8 hPa16.1 kmESE (110°)9.3 km/hMostly Cloudy
6:05 AM26 °C24 °C89 %1009.8 hPa16.1 kmESE (110°)9.3 km/hMostly Cloudy
6:32 AM26 °C24 °C89 %1010.2 hPa16.1 kmENE (60°)9.3 km/hMostly Cloudy
6:37 AM25 °C24 °C94 %1010.2 hPa14.5 kmENE (60°)14.8 km/hRainLight Rain
6:41 AM25 °C24 °C94 %1010.2 hPa8 kmENE (60°)13 km/hRainLight Rain
6:44 AM25 °C24 °C94 %1010.2 hPa8 kmENE (70°)11.1 km/hRainLight Rain
6:53 AM26 °C24 °C89 %1010.2 hPa16.1 kmEast (90°)9.3 km/hMostly Cloudy
6:55 AM25.6 °C23.9 °C90 %1010.2 hPa16.1 kmEast (90°)7.4 km/h0.25 mmMostly Cloudy
7:04 AM26 °C24 °C89 %1010.2 hPa16.1 kmENE (70°)9.3 km/hMostly Cloudy
7:10 AM26 °C24 °C89 %1010.2 hPa16.1 kmEast (80°)7.4 km/hScattered Clouds
7:35 AM27 °C24 °C84 %1010.2 hPa16.1 kmESE (110°)7.4 km/hMostly Cloudy
7:39 AM27 °C24 °C84 %1010.2 hPa16.1 kmEast (90°)9.3 km/hMostly Cloudy
7:49 AM26 °C24 °C89 %1010.2 hPa16.1 kmESE (110°)7.4 km/hMostly Cloudy
7:50 AM26 °C24 °C89 %1010.2 hPa16.1 kmESE (120°)7.4 km/hDrizzle
7:55 AM26.4 °C24.5 °C89 %1010.5 hPa16.1 kmESE (120°)7.4 km/h0 mmLight Drizzle
7:59 AM26 °C25 °C94 %1010.5 hPa16.1 kmSE (130°)5.6 km/hMostly Cloudy
8:06 AM27 °C25 °C89 %1010.5 hPa16.1 kmEast (100°)7.4 km/hMostly Cloudy
8:29 AM27 °C25 °C89 %1010.5 hPa16.1 kmESE (120°)13 km/hMostly Cloudy
8:49 AM27 °C25 °C89 %1010.5 hPa16.1 kmEast (90°)13 km/hMostly Cloudy
8:53 AM28 °C24 °C79 %1010.5 hPa16.1 kmEast (90°)16.7 km/hMostly Cloudy
8:55 AM27.9 °C24.4 °C81 %1010.5 hPa16.1 kmEast (80°)18.5 km/h0 mmMostly Cloudy
8:58 AM28 °C24 °C79 %1010.5 hPa16.1 kmEast (90°)16.7 km/hScattered Clouds
9:19 AM28 °C24 °C79 %1010.2 hPa16.1 kmEast (90°)13 km/hMostly Cloudy
9:55 AM28.1 °C24.2 °C79 %1010.2 hPa16.1 kmEast (100°)16.7 km/hMostly Cloudy
10:17 AM29 °C25 °C79 %1010.2 hPa16.1 kmEast (100°)18.5 km/hScattered Clouds
10:55 AM29 °C24.2 °C75 %1009.8 hPa16.1 kmEast (100°)18.5 km/hPartly Cloudy
11:55 AM29.1 °C24.7 °C77 %1009.5 hPa16.1 kmEast (90°)18.5 km/hMostly Cloudy
11:57 AM29 °C25 °C79 %1009.5 hPa16.1 kmEast (80°)20.4 km/hMostly Cloudy
11:59 AM29 °C25 °C79 %1009.5 hPa16.1 kmEast (80°)20.4 km/hMostly Cloudy
12:43 PM29 °C25 °C79 %1009.1 hPa16.1 kmEast (100°)16.7 km/hMostly Cloudy
12:55 PM28.8 °C24.5 °C77 %1008.8 hPa16.1 kmEast (80°)18.5 km/hMostly Cloudy
1:37 PM29 °C24 °C74 %1008.5 hPa16.1 kmEast (90°)16.7 km/hScattered Clouds
1:55 PM29.4 °C24.1 °C73 %1008.1 hPa16.1 kmEast (100°)18.5 km/hPartly Cloudy
2:42 PM29 °C24 °C74 %1007.8 hPa16.1 kmEast (90°)16.7 km/hMostly Cloudy
2:45 PM29 °C24 °C74 %1007.8 hPa16.1 kmESE (110°)13 km/hScattered Clouds
2:55 PM29.2 °C24.3 °C75 %1007.8 hPa16.1 kmEast (90°)16.7 km/hScattered Clouds
3:55 PM29 °C24.2 °C75 %1007.5 hPa16.1 kmESE (120°)13 km/hPartly Cloudy
4:25 PM29 °C24 °C74 %1007.5 hPa16.1 kmEast (100°)11.1 km/hMostly Cloudy
4:29 PM28 °C24 °C79 %1007.5 hPa16.1 kmEast (90°)13 km/hScattered Clouds
4:42 PM29 °C24 °C74 %1007.5 hPa16.1 kmVariable11.1 km/hMostly Cloudy
4:55 PM28 °C24.2 °C80 %1007.5 hPa16.1 kmEast (100°)11.1 km/hMostly Cloudy
5:15 PM28 °C24 °C79 %1007.5 hPa16.1 kmEast (100°)11.1 km/hScattered Clouds
5:16 PM28 °C24 °C79 %1007.5 hPa16.1 kmEast (90°)13 km/hMostly Cloudy
5:23 PM28 °C24 °C79 %1007.5 hPa16.1 kmEast (80°)16.7 km/hScattered Clouds
5:30 PM28 °C24 °C79 %1007.8 hPa16.1 kmEast (80°)13 km/hMostly Cloudy
5:37 PM27 °C24 °C84 %1007.8 hPa16.1 kmENE (70°)14.8 km/hScattered Clouds
5:55 PM27.3 °C24.4 °C84 %1007.8 hPa16.1 kmEast (80°)16.7 km/hScattered Clouds
6:22 PM27 °C24 °C84 %1008.1 hPa16.1 kmENE (70°)16.7 km/hMostly Cloudy
6:26 PM27 °C24 °C84 %1008.1 hPa16.1 kmENE (70°)14.8 km/hMostly Cloudy
6:28 PM27 °C24 °C84 %1008.1 hPa16.1 kmEast (80°)16.7 km/hMostly Cloudy
6:32 PM27 °C24 °C84 %1008.5 hPa16.1 kmEast (80°)16.7 km/hMostly Cloudy
6:38 PM27 °C24 °C84 %1008.5 hPa16.1 kmEast (80°)13 km/hMostly Cloudy
6:55 PM26.9 °C24.1 °C85 %1008.5 hPa16.1 kmEast (100°)13 km/hScattered Clouds
7:55 PM26.8 °C23.8 °C84 %1008.8 hPa16.1 kmEast (90°)16.7 km/hScattered Clouds
8:43 PM27 °C24 °C84 %1009.5 hPa16.1 kmEast (90°)14.8 km/hMostly Cloudy
8:51 PM27 °C24 °C84 %1009.5 hPa16.1 kmEast (90°)13 km/hMostly Cloudy
8:55 PM26.9 °C24.2 °C85 %1009.5 hPa16.1 kmEast (90°)13 km/hMostly Cloudy
9:01 PM27 °C24 °C84 %1009.8 hPa16.1 kmEast (90°)18.5 km/hOvercast
9:20 PM27 °C24 °C84 %1009.8 hPa16.1 kmEast (90°)18.5 km/hScattered Clouds
9:22 PM27 °C24 °C84 %1010.2 hPa16.1 kmEast (100°)16.7 km/hMostly Cloudy
9:36 PM27 °C24 °C84 %1010.2 hPa16.1 kmEast (90°)14.8 km/hScattered Clouds
9:37 PM27 °C24 °C84 %1010.2 hPa16.1 kmEast (90°)16.7 km/hMostly Cloudy
9:39 PM27 °C24 °C84 %1010.2 hPa16.1 kmEast (100°)16.7 km/hScattered Clouds
9:43 PM27 °C24 °C84 %1010.2 hPa16.1 kmEast (90°)14.8 km/hMostly Cloudy
9:55 PM26.8 °C24 °C85 %1010.2 hPa16.1 kmEast (90°)14.8 km/hMostly Cloudy
9:57 PM27 °C24 °C84 %1010.2 hPa16.1 kmEast (100°)14.8 km/hScattered Clouds
10:55 PM26.7 °C24 °C85 %1010.2 hPa16.1 kmEast (100°)16.7 km/hScattered Clouds
11:44 PM27 °C24 °C84 %1010.2 hPa16.1 kmEast (100°)13 km/hMostly Cloudy
11:46 PM27 °C24 °C84 %1010.2 hPa16.1 kmEast (100°)14.8 km/hScattered Clouds
11:54 PM27 °C24 °C84 %1010.2 hPa16.1 kmEast (100°)11.1 km/hMostly Cloudy
11:55 PM26.6 °C23.8 °C85 %1010.2 hPa16.1 kmEast (100°)11.1 km/hMostly Cloudy
11:56 PM27 °C24 °C84 %1010.2 hPa16.1 kmEast (100°)13 km/hScattered Clouds
11:59 PM27 °C24 °C84 %1010.2 hPa16.1 kmESE (110°)11.1 km/hMostly Cloudy
Hourly data recorded from PGUA, located 0 kilometers away from Inarajan, Guam







STORIES FROM OUR PARTNERS